EHI
15 17 19 16 11 9 9 9 7 5 6 7 5 5 8 10 10 10 17 28 32 31 27 23 20 18 14 11 10 10 7 4 3 2 1 0 0 0 0 0 0 0 0
20 22 21 17 13 13 15 14 11 9 8 8 6 4 6 10 12 15 20 25 28 29 28 26 23 20 15 12 11 10 7 5 4 3 1 1 0 0 0 0 0 0 0
19 20 19 16 15 16 17 14 12 11 10 9 7 4 5 9 12 16 20 21 22 24 26 25 23 21 17 14 12 10 8 7 6 4 3 2 1 0 0 0 0 0 0
11 11 12 13 14 16 14 11 10 11 9 9 7 5 6 8 9 11 14 16 17 21 23 21 19 18 17 15 13 12 10 9 8 6 4 3 1 0 0 0 0 0 0
6 6 7 10 13 15 13 10 11 11 10 8 6 4 5 6 6 6 7 10 13 17 18 15 14 13 12 12 12 13 13 11 9 6 4 3 1 0 0 0 0 0 0
8 7 7 8 11 14 12 10 12 12 10 7 4 2 2 3 4 4 3 4 7 10 11 10 10 10 9 8 9 11 13 12 10 6 4 2 1 0 0 0 0 0 0
11 10 8 9 12 14 12 10 10 10 8 5 3 2 1 2 4 4 2 2 3 6 8 8 7 9 9 7 7 8 11 11 10 8 5 3 1 1 0 0 0 0 0
13 12 12 14 15 15 13 10 8 7 6 4 4 2 1 2 4 4 2 1 3 6 8 7 5 6 8 8 7 6 6 8 10 9 8 6 3 2 1 0 0 0 0
13 12 13 15 15 14 12 10 7 5 4 4 3 2 1 2 4 4 2 1 2 5 6 5 3 4 6 8 8 5 4 5 7 10 10 7 4 2 1 0 0 0 0
11 10 10 12 12 11 10 9 7 5 3 3 3 3 2 2 3 2 1 0 1 2 3 3 3 3 3 5 7 6 4 3 5 7 8 7 4 1 0 0 0 0 0
9 7 7 8 8 8 8 7 6 5 4 3 3 2 2 2 2 1 0 0 0 1 1 1 2 3 2 3 4 4 3 2 3 3 4 5 3 1 0 0 0 0 0
5 5 6 6 5 5 5 5 6 6 5 3 1 1 1 2 2 2 1 0 0 0 0 0 1 2 3 3 2 2 1 1 1 1 1 2 1 0 0 1 0 0 0
2 3 4 4 3 2 2 3 4 4 3 2 1 0 0 1 2 3 2 1 0 0 0 0 0 2 3 2 1 0 0 0 0 0 0 0 0 0 0 0 0 0 0
1 1 1 1 1 1 1 1 2 2 1 1 0 0 0 1 3 4 3 2 1 0 0 0 0 1 1 1 0 0 0 0 0 0 0 0 0 0 0 0 0 0 0
0 0 0 0 0 0 0 0 0 0 0 0 1 1 1 2 3 4 4 3 2 1 0 0 0 0 1 1 0 0 0 0 0 0 0 0 0 0 0 0 0 0 0
0 0 0 0 0 0 0 0 0 0 0 0 1 2 3 3 3 4 4 4 2 1 0 0 0 0 1 1 0 0 0 0 0 0 0 0 0 0 0 0 0 0 0
0 0 0 0 0 0 0 0 0 0 0 0 1 2 3 3 3 3 4 3 3 1 0 0 0 0 0 0 0 0 0 0 0 0 0 0 0 0 0 0 0 0 0
0 0 0 0 0 0 0 0 0 0 0 0 0 1 1 2 3 3 3 3 2 1 0 0 0 0 0 0 0 0 0 0 0 0 0 0 0 0 0 0 0 0 0
0 0 0 0 0 0 0 0 0 0 0 0 0 0 0 1 1 2 2 1 1 1 0 0 0 0 0 0 0 0 0 0 0 0 0 0 0 0 0 0 0 0 0
0 0 0 0 0 0 0 0 0 0 0 0 0 0 0 0 0 1 1 0 0 0 0 0 0 0 0 0 0 0 0 0 0 0 0 0 0 0 0 0 0 0 0
0 0 0 0 0 0 0 0 0 0 0 0 0 0 0 0 0 0 0 0 0 0 0 0 0 0 0 0 0 0 0 0 0 0 0 0 0 0 0 0 0 0 0
0 0 0 0 0 0 0 0 0 0 0 0 0 0 0 0 0 0 0 0 0 0 0 0 0 0 0 0 0 0 0 0 0 0 0 0 0 0 0 0 0 0 0
0 0 0 0 0 0 0 0 0 0 0 0 0 0 0 0 0 0 0 0 0 0 0 0 0 0 0 0 0 0 0 0 0 0 0 0 0 0 0 0 0 0 0
0 0 0 0 0 0 0 0 0 0 0 0 0 0 0 0 0 0 0 0 0 0 0 0 0 0 0 0 0 0 0 0 0 0 0 0 0 0 0 0 0 0 0
0 0 0 0 0 0 0 0 0 0 0 0 0 0 0 0 0 0 0 0 0 0 0 0 0 0 0 0 0 0 0 0 0 0 0 0 0 0 0 0 0 0 0
0 0 0 0 0 0 0 0 0 0 0 0 0 0 0 0 0 0 0 0 0 0 0 0 0 0 0 0 0 0 0 0 0 0 0 0 0 0 0 0 0 0 0
Wind_Speed
2 2 1 1 2 1 1 1 2 3 3 4 3 3 3 2 2 1 2 7 7 7 8 9 9 10 11 11 11 10 10 10 10 10 10 10 9 9 8 8 8 8 8
2 2 2 2 2 2 2 2 3 2 2 2 3 4 3 3 1 1 1 3 6 6 6 7 8 9 9 10 11 11 11 11 10 10 9 9 9 9 10 9 9 8 8
3 2 2 1 2 2 2 2 3 2 2 2 2 3 2 2 2 2 1 0 2 5 6 6 6 7 9 9 10 11 12 12 12 11 11 11 10 10 11 10 10 9 9
4 3 2 2 3 2 2 2 2 2 2 2 2 2 2 1 2 2 2 1 1 1 4 6 5 6 7 9 10 11 11 12 12 11 11 11 11 11 11 10 10 10 10
4 3 2 2 3 3 2 3 2 2 2 2 3 2 2 2 2 3 2 1 1 0 1 4 5 6 6 7 9 10 11 11 10 11 12 11 11 11 10 10 10 10 10
4 4 2 3 3 3 2 3 3 3 2 2 3 3 2 2 1 1 2 1 1 1 1 0 1 2 3 4 5 7 9 10 10 10 11 11 11 10 11 11 10 10 10
3 3 3 3 3 2 3 3 3 4 2 1 2 3 2 2 1 1 0 0 1 1 1 1 1 0 0 2 2 4 6 8 9 10 10 10 10 10 10 11 10 10 10
3 3 3 3 3 2 2 3 3 3 3 2 1 2 2 1 1 1 0 1 0 1 2 2 2 1 1 0 0 2 3 5 6 7 8 8 8 9 10 11 12 12 11
3 4 4 4 4 3 2 3 3 3 3 3 1 1 1 1 2 1 2 2 2 2 2 2 2 2 2 2 1 1 2 2 4 6 7 7 8 8 9 11 12 12 12
3 3 4 4 4 4 3 4 3 3 3 3 2 1 1 1 1 1 1 2 3 3 3 3 3 3 3 2 3 4 3 2 1 2 3 4 5 7 8 9 10 11 12
3 4 4 4 4 4 4 4 3 3 3 3 3 2 2 1 1 1 1 1 2 2 3 3 3 3 3 3 2 4 5 3 2 1 1 2 3 5 6 6 6 7 9
3 5 5 4 4 4 4 4 3 3 3 3 3 2 2 2 1 1 1 1 1 2 3 3 3 3 3 3 5 8 7 7 6 5 4 4 5 5 6 6 6 6 7
4 5 5 4 4 4 4 4 4 3 3 3 3 2 2 2 1 1 1 1 1 1 1 2 2 2 3 3 3 8 8 8 7 6 6 6 6 6 6 7 7 7 8
3 4 4 4 5 5 5 4 4 4 3 3 3 2 2 2 2 1 1 1 1 1 0 1 2 2 2 2 4 5 5 7 7 7 7 6 6 6 6 7 7 7 7
3 4 4 4 4 5 5 5 3 4 4 3 3 2 2 2 2 1 1 1 2 1 0 0 1 1 1 2 3 3 3 6 6 6 7 7 6 6 6 6 6 6 6
4 4 4 4 4 5 5 4 4 4 4 3 2 3 3 2 2 2 1 1 1 2 1 1 1 1 1 2 3 3 4 7 6 6 7 7 7 7 7 6 6 5 6
3 3 4 4 3 4 4 4 4 4 4 4 4 3 3 3 2 2 1 1 0 1 3 1 1 1 1 2 2 1 2 2 4 7 7 7 6 6 5 5 5 5 6
3 3 3 4 4 4 5 5 5 5 5 5 4 4 4 3 3 2 1 1 0 1 3 3 1 1 1 1 1 1 2 3 4 6 6 6 5 4 3 3 3 4 4
3 3 3 4 4 4 5 6 5 5 5 5 5 5 4 4 3 2 1 1 0 2 3 4 3 1 1 1 1 2 3 2 3 5 5 5 4 4 4 3 3 3 3
3 3 4 4 4 5 6 6 6 4 4 4 4 5 5 5 5 3 2 2 2 2 2 3 3 2 1 1 1 1 2 1 1 2 3 3 4 4 3 3 3 3 3
5 4 4 4 4 5 7 8 6 5 4 4 3 4 4 6 7 5 3 3 2 2 2 2 3 2 2 2 1 1 2 2 1 1 1 1 2 2 3 3 4 4 4
4 4 5 5 6 6 9 10 7 5 4 4 3 3 3 4 6 6 6 5 4 3 2 2 3 3 2 2 2 1 1 1 1 0 1 1 2 2 3 3 6 7 7
4 5 4 4 5 6 9 10 10 4 4 4 4 4 5 6 6 4 4 5 6 5 3 2 3 2 3 2 2 1 1 1 0 1 1 1 1 1 2 3 8 9 9
3 3 3 4 4 6 9 10 10 3 3 3 4 4 4 5 7 5 4 4 4 4 4 3 3 2 2 1 1 0 0 1 1 1 1 1 1 1 1 2 7 10 10
2 1 2 3 4 5 8 9 8 2 2 3 4 5 5 5 8 8 4 4 5 4 5 6 4 3 2 1 0 1 1 1 1 1 1 0 1 1 1 2 4 10 10
1 1 3 3 3 4 6 8 8 3 2 2 3 4 7 7 7 8 4 4 4 3 3 2 2 1 2 2 3 2 1 0 1 1 0 0 1 1 1 2 2 3 5
Wind_Direction
350 350 346 342 313 309 265 261 261 265 277 290 287 279 279 279 296 320 139 162 171 184 194 202 211 214 215 215 215 216 219 220 219 215 212 209 208 210 209 205 202 199 198
11 353 348 346 329 326 339 308 284 286 288 301 301 304 312 313 324 302 176 173 179 186 203 212 217 219 222 222 218 214 217 220 220 220 217 212 208 208 208 208 205 204 201
4 355 336 326 319 318 319 308 302 303 277 275 282 293 294 299 297 303 306 234 194 195 205 213 216 223 226 229 227 221 218 218 217 220 221 218 212 208 207 206 207 208 203
4 346 328 343 332 322 325 311 307 310 311 309 300 291 294 286 281 272 265 262 250 221 208 216 218 223 227 231 230 226 221 220 219 219 221 222 219 213 208 206 208 209 206
0 330 331 352 336 340 349 322 345 315 305 298 286 264 260 268 268 272 260 266 263 226 189 199 213 223 231 232 230 224 222 223 222 220 222 222 221 216 210 210 211 210 209
357 338 336 348 344 347 343 341 336 308 289 283 295 308 285 267 275 305 306 314 342 328 337 266 192 223 232 246 242 230 227 224 224 220 219 218 216 213 210 210 210 210 210
355 346 349 338 348 346 341 338 326 315 311 328 318 311 292 256 210 213 256 9 357 5 50 41 48 43 229 236 256 250 241 234 229 221 219 217 214 213 208 207 207 207 206
360 353 355 344 351 342 338 332 337 322 313 317 311 308 292 287 28 359 26 95 70 40 43 47 52 45 7 71 300 265 257 242 234 218 215 212 211 214 214 211 209 207 205
22 5 359 355 348 341 342 335 341 327 316 309 305 304 307 323 356 7 16 35 49 47 38 35 33 30 23 30 12 321 328 268 232 226 225 220 217 217 216 215 214 208 199
24 8 6 357 351 345 344 334 358 330 320 317 319 296 282 303 273 332 355 14 30 33 32 19 20 26 25 35 29 34 38 33 270 236 229 222 214 215 208 206 208 203 198
31 16 17 6 355 347 346 340 344 341 330 327 324 320 309 293 247 235 266 332 14 23 29 22 25 21 24 31 36 42 57 59 58 69 128 186 200 193 182 186 190 189 186
35 23 20 12 0 355 346 340 343 341 337 332 325 323 317 308 312 276 248 261 354 5 19 21 19 14 29 39 48 54 62 67 66 71 83 103 116 121 129 134 142 151 168
37 22 13 5 360 354 347 347 349 343 341 338 334 326 320 318 303 272 233 239 277 292 346 23 22 20 33 42 52 57 62 67 70 73 77 90 106 116 128 137 138 142 143
34 20 8 7 1 354 352 357 351 345 348 344 343 330 317 321 308 296 259 219 225 249 53 40 18 18 31 42 52 55 69 71 72 74 78 85 95 103 112 117 118 119 124
28 21 8 4 2 360 357 356 357 355 351 344 338 338 330 324 316 305 276 235 216 210 221 66 44 4 28 62 49 59 77 80 78 78 81 83 86 95 101 105 110 117 123
26 15 7 6 5 3 2 355 353 0 359 350 341 350 344 335 327 322 309 287 257 195 170 119 86 48 36 62 64 65 80 88 83 88 90 88 86 90 95 99 110 124 131
19 19 4 2 0 9 2 359 1 1 359 355 352 353 345 343 340 330 327 307 298 138 142 130 102 114 86 74 71 78 102 94 99 100 100 96 94 95 97 104 114 125 128
19 14 2 356 6 15 6 1 0 1 358 2 3 359 353 352 340 333 339 346 26 132 140 140 136 142 110 117 102 98 104 100 103 106 106 103 100 100 109 120 130 137 137
25 11 5 7 14 15 10 360 359 3 8 8 5 1 2 358 347 346 359 7 56 111 132 141 143 139 118 129 104 93 94 92 115 124 124 119 117 115 120 125 130 146 161
30 19 13 12 22 27 15 3 355 359 12 15 17 15 13 13 2 0 29 28 60 106 135 137 138 135 123 138 125 119 104 96 97 122 117 133 141 146 152 153 155 163 176
30 25 19 20 26 33 15 2 350 0 12 18 29 35 37 44 40 35 43 42 49 62 102 122 124 113 102 100 91 118 109 113 92 110 132 148 155 169 181 191 192 196 198
22 20 27 28 31 27 7 5 0 355 6 13 13 25 55 60 52 53 62 64 68 78 90 99 99 105 96 77 54 69 102 107 101 188 152 219 174 184 192 187 193 195 202
28 23 26 36 42 28 11 5 2 357 13 15 16 21 37 41 33 35 58 61 59 56 66 104 99 93 101 84 61 31 51 56 236 217 165 264 224 214 216 194 187 194 200
28 19 21 31 37 26 12 4 354 355 19 32 40 39 48 40 25 23 50 68 70 57 54 82 90 84 93 84 57 315 309 343 299 257 189 229 264 253 242 180 194 198 203
13 12 41 42 37 27 12 5 358 344 40 43 49 44 43 53 24 24 46 62 72 71 69 83 99 109 112 136 174 64 6 16 327 293 197 198 265 259 236 218 203 205 213
360 21 48 47 46 36 15 6 1 359 30 51 71 71 56 47 31 28 40 52 55 45 50 65 93 152 193 216 228 221 240 292 323 305 231 158 281 294 291 236 202 204 222